• In Hungary
  • List of Countries
  • For 7 days
  • Water Temperature
  • Satellite Maps
  • Weather Map
  • News
  • Weather Widgets
  • user-avatar
    Login

    Hourly Weather Pyatkino

    Today, 19 September, Wednesday

    Time Temperature Precipitation Wind Pressure Humidity
    00:00 +8°C° 0 mm 2 mps 747 mmHg 91%
    01:00 +8°C° 0 mm 2 mps 747 mmHg 92%
    02:00 +8°C° 0 mm 2 mps 747 mmHg 93%
    03:00 +9°C° 0.1 mm 2 mps 747 mmHg 91%
    04:00 +10°C° 0.1 mm 3 mps 746 mmHg 90%
    05:00 +10°C° 0.1 mm 3 mps 746 mmHg 88%
    06:00 +11°C° 0 mm 3 mps 746 mmHg 87%
    07:00 +12°C° 0 mm 4 mps 746 mmHg 85%
    08:00 +14°C° 0 mm 4 mps 746 mmHg 83%
    09:00 +17°C° 0 mm 4 mps 746 mmHg 76%
    10:00 +17°C° 0 mm 5 mps 745 mmHg 70%
    11:00 +20°C° 0 mm 5 mps 745 mmHg 63%
    12:00 +21°C° 0 mm 5 mps 745 mmHg 60%
    13:00 +22°C° 0 mm 5 mps 745 mmHg 56%
    14:00 +23°C° 0 mm 5 mps 745 mmHg 53%
    15:00 +22°C° 0 mm 4 mps 745 mmHg 59%
    16:00 +21°C° 0 mm 4 mps 745 mmHg 65%
    17:00 +19°C° 0 mm 3 mps 744 mmHg 71%
    18:00 +18°C° 0 mm 3 mps 745 mmHg 76%
    19:00 +17°C° 0 mm 3 mps 745 mmHg 81%
    20:00 +16°C° 0 mm 3 mps 745 mmHg 86%
    21:00 +16°C° 0 mm 3 mps 745 mmHg 88%
    22:00 +16°C° 0 mm 3 mps 745 mmHg 90%
    23:00 +16°C° 0 mm 3 mps 744 mmHg 93%

    Tomorrow, 20 September, Thursday

    Time Temperature Precipitation Wind Pressure Humidity
    00:00 +14°C° 0 mm 3 mps 745 mmHg 94%
    01:00 +14°C° 0 mm 3 mps 745 mmHg 95%
    02:00 +14°C° 0 mm 3 mps 745 mmHg 96%
    03:00 +14°C° 0 mm 3 mps 745 mmHg 96%
    04:00 +14°C° 0 mm 3 mps 745 mmHg 97%
    05:00 +14°C° 0 mm 3 mps 745 mmHg 97%
    06:00 +14°C° 0 mm 3 mps 745 mmHg 94%
    07:00 +16°C° 0 mm 3 mps 746 mmHg 90%
    08:00 +17°C° 0 mm 4 mps 746 mmHg 87%
    09:00 +18°C° 0 mm 4 mps 746 mmHg 80%
    10:00 +19°C° 0 mm 3 mps 746 mmHg 73%
    11:00 +20°C° 0 mm 3 mps 747 mmHg 67%
    12:00 +21°C° 0 mm 3 mps 747 mmHg 64%
    13:00 +22°C° 0 mm 3 mps 747 mmHg 61%
    14:00 +22°C° 0 mm 3 mps 747 mmHg 59%
    15:00 +21°C° 0 mm 3 mps 747 mmHg 64%
    16:00 +20°C° 0 mm 2 mps 747 mmHg 70%
    17:00 +19°C° 0 mm 2 mps 747 mmHg 75%
    18:00 +18°C° 0 mm 2 mps 747 mmHg 79%
    19:00 +17°C° 0 mm 2 mps 747 mmHg 83%
    20:00 +15°C° 0 mm 2 mps 748 mmHg 87%
    21:00 +15°C° 0 mm 2 mps 748 mmHg 89%
    22:00 +15°C° 0 mm 2 mps 748 mmHg 90%
    23:00 +14°C° 0 mm 2 mps 748 mmHg 92%

    Day after tomorrow, 21 September, Friday

    Time Temperature Precipitation Wind Pressure Humidity
    00:00 +14°C° 0 mm 2 mps 748 mmHg 93%
    01:00 +14°C° 0 mm 2 mps 748 mmHg 94%
    02:00 +14°C° 0 mm 2 mps 748 mmHg 94%
    03:00 +14°C° 0 mm 2 mps 749 mmHg 95%
    04:00 +13°C° 0 mm 2 mps 749 mmHg 95%
    05:00 +13°C° 0 mm 2 mps 749 mmHg 95%
    06:00 +15°C° 0 mm 2 mps 749 mmHg 90%
    07:00 +16°C° 0 mm 2 mps 749 mmHg 85%
    08:00 +17°C° 0 mm 2 mps 749 mmHg 80%
    09:00 +19°C° 0 mm 2 mps 749 mmHg 75%
    10:00 +21°C° 0 mm 2 mps 749 mmHg 70%
    11:00 +22°C° 0 mm 3 mps 749 mmHg 64%
    12:00 +24°C° 0 mm 3 mps 749 mmHg 63%
    13:00 +25°C° 0 mm 3 mps 749 mmHg 61%
    14:00 +25°C° 0 mm 3 mps 749 mmHg 60%
    15:00 +24°C° 0 mm 3 mps 749 mmHg 65%
    16:00 +23°C° 0 mm 2 mps 749 mmHg 71%
    17:00 +21°C° 0 mm 2 mps 749 mmHg 77%
    18:00 +20°C° 0 mm 2 mps 749 mmHg 80%
    19:00 +19°C° 0 mm 2 mps 749 mmHg 83%
    20:00 +17°C° 0 mm 2 mps 749 mmHg 86%
    21:00 +17°C° 0 mm 2 mps 748 mmHg 88%
    22:00 +17°C° 0 mm 3 mps 748 mmHg 89%
    23:00 +17°C° 0 mm 3 mps 748 mmHg 91%

    22 September, Saturday

    Time Temperature Precipitation Wind Pressure Humidity
    00:00 +17°C° 0 mm 3 mps 748 mmHg 92%
    01:00 +16°C° 0 mm 3 mps 748 mmHg 93%
    02:00 +16°C° 0 mm 3 mps 747 mmHg 94%
    03:00 +16°C° 0 mm 3 mps 747 mmHg 94%
    04:00 +16°C° 0 mm 3 mps 747 mmHg 94%
    05:00 +16°C° 0 mm 3 mps 747 mmHg 94%
    06:00 +17°C° 0 mm 4 mps 746 mmHg 88%
    07:00 +18°C° 0 mm 4 mps 746 mmHg 83%
    08:00 +19°C° 0 mm 5 mps 746 mmHg 77%
    09:00 +21°C° 0 mm 5 mps 745 mmHg 70%
    10:00 +22°C° 0 mm 6 mps 745 mmHg 63%
    11:00 +23°C° 0 mm 7 mps 744 mmHg 57%
    12:00 +24°C° 0 mm 6 mps 744 mmHg 55%
    13:00 +24°C° 0 mm 6 mps 744 mmHg 54%
    14:00 +24°C° 0 mm 6 mps 743 mmHg 52%
    15:00 +23°C° 0.1 mm 5 mps 743 mmHg 58%
    16:00 +22°C° 0.1 mm 5 mps 743 mmHg 64%
    17:00 +20°C° 0.1 mm 4 mps 743 mmHg 69%
    18:00 +19°C° 0.1 mm 4 mps 744 mmHg 75%
    19:00 +17°C° 0.1 mm 3 mps 744 mmHg 80%
    20:00 +14°C° 0.1 mm 3 mps 744 mmHg 86%
    21:00 +13°C° 0.2 mm 3 mps 744 mmHg 85%
    22:00 +12°C° 0.2 mm 3 mps 744 mmHg 84%
    23:00 +11°C° 0.2 mm 3 mps 744 mmHg 83%

    23 September, Sunday

    Time Temperature Precipitation Wind Pressure Humidity
    00:00 +11°C° 0.3 mm 3 mps 744 mmHg 84%
    01:00 +12°C° 0.3 mm 2 mps 744 mmHg 86%
    02:00 +10°C° 0.3 mm 2 mps 744 mmHg 87%
    03:00 +10°C° 0.2 mm 2 mps 744 mmHg 88%
    04:00 +10°C° 0.2 mm 2 mps 744 mmHg 89%
    05:00 +11°C° 0.2 mm 1 mps 743 mmHg 90%
    06:00 +10°C° 1 mm 2 mps 743 mmHg 91%
    07:00 +10°C° 1 mm 2 mps 743 mmHg 93%
    08:00 +9°C° 1 mm 2 mps 743 mmHg 94%
    09:00 +9°C° 1.7 mm 2 mps 742 mmHg 94%
    10:00 +9°C° 1.7 mm 2 mps 742 mmHg 94%
    11:00 +9°C° 1.7 mm 3 mps 742 mmHg 94%
    12:00 +9°C° 1.9 mm 3 mps 742 mmHg 93%
    13:00 +9°C° 1.9 mm 3 mps 742 mmHg 92%
    14:00 +9°C° 1.9 mm 3 mps 741 mmHg 91%
    15:00 +9°C° 0.7 mm 2 mps 741 mmHg 91%
    16:00 +9°C° 0.7 mm 2 mps 741 mmHg 91%
    17:00 +9°C° 0.7 mm 2 mps 741 mmHg 91%
    18:00 +9°C° 0.1 mm 2 mps 742 mmHg 92%
    19:00 +9°C° 0.1 mm 2 mps 742 mmHg 93%
    20:00 +8°C° 0.1 mm 2 mps 742 mmHg 94%
    21:00 +8°C° 0 mm 2 mps 742 mmHg 94%
    22:00 +7°C° 0 mm 2 mps 742 mmHg 95%
    23:00 +7°C° 0 mm 2 mps 742 mmHg 95%

    24 September, Monday

    Time Temperature Precipitation Wind Pressure Humidity
    00:00 +7°C° 0 mm 2 mps 742 mmHg 95%
    01:00 +6°C° 0 mm 2 mps 742 mmHg 95%
    02:00 +6°C° 0 mm 2 mps 743 mmHg 96%
    03:00 +6°C° 0 mm 2 mps 742 mmHg 96%
    04:00 +5°C° 0 mm 2 mps 742 mmHg 96%
    05:00 +6°C° 0 mm 1 mps 742 mmHg 96%
    06:00 +6°C° 0 mm 2 mps 743 mmHg 93%
    07:00 +7°C° 0 mm 2 mps 743 mmHg 91%
    08:00 +8°C° 0 mm 2 mps 743 mmHg 88%
    09:00 +10°C° 0 mm 2 mps 743 mmHg 81%
    10:00 +12°C° 0 mm 2 mps 743 mmHg 74%
    11:00 +14°C° 0 mm 2 mps 743 mmHg 68%
    12:00 +14°C° 0 mm 2 mps 743 mmHg 63%
    13:00 +15°C° 0 mm 2 mps 743 mmHg 59%
    14:00 +15°C° 0 mm 2 mps 743 mmHg 55%
    15:00 +14°C° 0 mm 2 mps 742 mmHg 61%
    16:00 +13°C° 0 mm 2 mps 742 mmHg 67%
    17:00 +12°C° 0 mm 2 mps 742 mmHg 74%
    18:00 +10°C° 0 mm 2 mps 742 mmHg 74%
    19:00 +10°C° 0 mm 2 mps 742 mmHg 75%
    20:00 +10°C° 0 mm 2 mps 741 mmHg 75%
    21:00 +10°C° 0.1 mm 3 mps 741 mmHg 76%
    22:00 +10°C° 0.1 mm 3 mps 741 mmHg 77%
    23:00 +10°C° 0.1 mm 3 mps 740 mmHg 79%
    Show more